Flag for Germany Weather past 2 weeks in Itzehoe, Schleswig-Holstein, Germany

Now
61 °F

Passing clouds.


Feels Like: 61 °F
Forecast: 49 / 72 °F
Wind: 16 mph from West

Location: Hohn

Current Time: May 4, 2015 at 4:18:59 PM

Latest Report: May 4, 2015 at 3:20 PM


Visibility: N/A

Pressure: 29.77 "Hg

Humidity: 68%

Dew point: 50 °F

Location of ItzehoeLocation

Historic Weather in Itzehoe — Graph

°F

Itzehoe temperature yesterday

Maximum temperature yesterday: 63 °F (at 2:20 PM)
Minimum temperature yesterday: 30 °F (at 1:20 AM)
Average temperature yesterday: 48 °F

Past Weeks' High & Low Weather Summary

 TemperatureHumidityPressure
High64 °F (Apr 20, 3:20 PM)100% (Apr 20, 3:20 AM)30.36 "Hg (Apr 20, 3:20 AM)
Low27 °F (Apr 28, 5:20 AM)27% (Apr 20, 7:20 PM)29.50 "Hg (May 4, 12:20 AM)
Average48 °F74%29.93 "Hg
* Reported Apr 19 2:20 PM — May 4 2:20 PM, Itzehoe, Weather by CustomWeather, © 2015

Note: Actual official high and low records may vary slightly from our data, if they occured in-between our weather recording intervals... More about our weather records

Advertising

Itzehoe weather history for previous 24 hours

 ConditionsComfort  
Time TempWeatherWind HumidityBarometerVisibility
2:20 PM
Mon, May 4
59 °FScattered clouds.13 mph72%29.74 "HgN/A
1:20 PM61 °FPartly sunny.16 mph72%29.74 "HgN/A
12:20 PM57 °FPartly sunny.15 mph77%29.71 "HgN/A
11:20 AM57 °FPartly sunny.12 mph77%29.68 "HgN/A
10:20 AM57 °FPartly sunny.14 mph77%29.68 "HgN/A
9:20 AM55 °FPartly sunny.14 mph82%29.65 "HgN/A
8:20 AM55 °FBroken clouds.13 mph82%29.62 "HgN/A
7:20 AM54 °FBroken clouds.12 mph88%29.59 "HgN/A
6:20 AM54 °FPassing clouds.12 mph88%29.59 "HgN/A
5:20 AM55 °FPassing clouds.10 mph88%29.56 "HgN/A
4:20 AM55 °FCool.12 mph88%29.56 "Hg4 mi
3:20 AM57 °FCool.9 mph88%29.53 "Hg4 mi
2:20 AM57 °FCool.10 mph94%29.53 "Hg4 mi
1:20 AM57 °FCool.9 mph94%29.53 "Hg3 mi
12:20 AM55 °FCool.8 mph94%29.50 "Hg2 mi
11:20 PM
Sun, May 3
52 °FCool.8 mph100%29.53 "Hg1 mi
10:20 PM52 °FCool.8 mph94%29.56 "Hg1 mi
9:20 PM52 °FCool.10 mph94%29.56 "Hg2 mi
8:20 PM52 °FCool.8 mph88%29.59 "Hg2 mi
7:20 PM54 °FCool.12 mph82%29.59 "Hg3 mi
6:20 PM59 °FRefreshingly cool.14 mph51%29.62 "Hg5 mi
5:20 PM61 °FRefreshingly cool.12 mph45%29.65 "Hg5 mi
4:20 PM63 °FMild.15 mph39%29.65 "Hg6 mi
Weather by CustomWeather, © 2015

See weather overviewHow to use our weather pages